Regional Weather Roundup
Issued by NWS Newport/Morehead, NC

Current Version | Previous Version | Graphics & Text | Print | Product List | Glossary Off
Versions: 1 2 3 4 5 6 7 8 9 10 11 12 13 14 15 16 17 18 19 20 21 22 23 24 25 26 27 28 29 30 31 32 33 34 35 36 37 38 39 40 41 42 43 44 45 46 47 48 49 50

000
ASUS42 KMHX 230410
RWRMHX
WEATHER ROUNDUP FOR EASTERN NORTH CAROLINA
NATIONAL WEATHER SERVICE NEWPORT/MOREHEAD CITY NC
1200 AM EDT TUE SEP 23 2014

NOTE: "FAIR" INDICATES FEW OR NO CLOUDS BELOW 12,000 FEET
WITH NO SIGNIFICANT WEATHER AND/OR OBSTRUCTIONS TO VISIBILITY

NCZ015>017-031-032-045>047-102-103-230500-
NORTH COAST

CITY           SKY/WX    TMP DP  RH WIND       PRES   REMARKS
EDENTON        MOCLDY    63  59  87 NE3       30.14F
ELIZABETH CITY PTCLDY    67  59  75 N9        30.15R
KITTY HAWK     PTCLDY    70  58  65 NE5       30.13R
MANTEO         PTCLDY    69  59  71 NE9       30.14R

$$

NCZ045>047-081-094-103-104-230500-
CENTRAL COAST

CITY           SKY/WX    TMP DP  RH WIND       PRES   REMARKS
FRISCO         MOCLDY    68  60  75 NE6       30.12R
SWANQUARTER      N/A     64 N/A N/A NE3       30.09S

$$

NCZ095-097-098-100-101-230500-
SOUTHERN COAST

CITY           SKY/WX    TMP DP  RH WIND       PRES   REMARKS
BEAUFORT       MOCLDY    71  64  78 NE5       30.11R
CEDAR ISLAND     N/A     73 N/A N/A NE15      30.15S
JACKSONVILLE   CLOUDY    70  59  68 N8        30.09F
NEWPORT        NOT AVBL
PINEY ISLAND   MOCLDY    75  62  64 NE12      30.11S
WILMINGTON     CLOUDY    68  67  96 CALM      30.09F


$$

NCZ011>013-027>030-043-044-078>080-089-090>093-098-230500-
COASTAL PLAIN

CITY           SKY/WX    TMP DP  RH WIND       PRES   REMARKS
AHOSKIE        CLOUDY    62  57  83 N3        30.16R
CLINTON        DRIZZLE   69  58  69 N5        30.12S
ELIZABETHTOWN  CLOUDY    68  58  72 CALM      30.10F
GOLDSBORO      CLOUDY    68  61  79 CALM      30.11F
GREENVILLE     CLOUDY    64  59  82 N3        30.15S
HAVELOCK       MOCLDY    70  65  84 E5        30.12S
KENANSVILLE    CLOUDY    66  57  72 NE3       30.12F
KINSTON        CLOUDY    67  59  76 NE3       30.13F
NEW BERN       CLOUDY    69  63  81 NE7       30.12F
RICHLANDS      CLOUDY    68  57  68 N9        30.11S
ROANOKE RAPIDS NOT AVBL
ROCKY MOUNT    CLOUDY    65  59  81 CALM      30.14F
WASHINGTON     CLOUDY    64  59  83 NE3       30.14S
WHITEVILLE     LGT RAIN  67  60  80 NE5       30.09S

$$

AMZ130-135-150-152-154-156-158-170-250-252-270-ANZ085-086-088-633-658-670-230500-
MARINE OBSERVATIONS

STATION/POSITION TIME  TEMP    WIND        PRES    WAVE   SWELL
                       AIR SEA DIR/SP/G            HT/PER HT/PER
                 (UTC) (F)     (DEG/KT/KT) (MB)    (FT/S) (FT/S)
CHESAPEAKE LIGHT 0300   70      10/ 17/ 18 1021.2
BUOY 44014       0400   71 76   10/ 16/ 19 1020.0    4/ 8   2/ 8
DUCK             0400   71 75   20/ 13/ 16 1020.2
2E DUCK          0400                        N/A     2/ 8
OREGON INLET     0400   70 76   20/ 12/ 16 1020.3
BUOY 44095       0400      74                N/A     3/ 8
20E OREGON INLET NOT AVBL
HATTERAS CG      NOT AVBL
DIAMOND BUOY     0400   73      10/ 16/ 19 1019.4    4/ 7   2/ 8
CAPE LOOKOUT     0300   73      20/ 10/ 13 1019.1
BEAUFORT LAB     0400   71 76   60/  4/  6 1019.1
30 SE NEW RIVER  0300   77 82   50/ 14/ 16 1018.4
5 SE WRIGHTSVILL 0300   70 79  340/ 10/ 12   N/A
BUOY 41002       0350   80 81   CALM  /  2 1019.2    3/ 7   3/ 7
BUOY 41004       0400   78 82   40/ 12/ 16 1018.0    4/ 4   2/ 8

$$


USA.gov is the U.S. government's official web portal to all federal, state and local government web resources and services.